[[{"header":{"parameterUnit":"m.s-1","parameterCategory":1,"la1":30.2991,"la2":30.254,"lo1":-89.0895,"lo2":-89.0444,"dy":0.0017,"dx":0.0017,"nx":28,"ny":28,"refTime":"2024-02-29T03:00:00:Z","depth":0,"parameterNumber":2,"parameterNumberName":"U-component_of_WINDS"},"data":[0,0,0,0,0,0,0,0,0,0,0,0,0,0,0,0,0,0,0,0,0,0,0,0,0,0,0,0,0,0,0,0,0,0,0,0,0,0,0,0,0,0,0,0,0,0,0,0,0,0,0,0,0,0,0,0,0,0,1.704,1.7039,0,1.6955,1.6954,1.6953,1.6962,1.6963,1.6965,1.6966,1.6878,1.6874,1.6871,0,0,0,0,0,0,0,0,0,0,0,0,0,1.7212,1.7209,1.704,1.7039,1.7038,1.6955,1.6954,1.6953,1.6962,1.6963,1.6965,1.6966,1.6879,1.6875,1.6871,0,0,0,0,0,0,0,0,0,0,0,0,0,1.7133,1.7208,1.704,1.7032,1.7031,1.6955,1.6954,1.6952,1.6961,1.6963,1.6965,1.6967,1.688,1.6875,1.687,1.6796,0,0,1.6853,1.6851,0,0,0,0,0,0,0,0,1.7138,1.7127,1.7034,1.7033,1.7031,1.6971,1.6982,1.69,1.6961,1.6987,1.6966,1.6968,1.6907,1.69,1.6879,1.6792,1.6789,1.6853,1.685,1.6847,1.6846,0,0,0,0,0,0,0,1.7143,1.7131,1.7006,1.7033,1.7031,1.7034,1.7025,1.6967,1.6937,1.6985,1.6986,1.6976,1.6907,1.6885,1.6877,1.6787,1.6853,1.6848,1.6845,1.6843,1.6642,1.664,0,0,0,0,0,0,1.7151,1.7135,1.7009,1.7004,1.709,1.7029,1.7019,1.6988,1.6938,1.6932,1.6974,1.6976,1.6893,1.6884,1.6874,1.6788,1.6847,1.6842,1.6839,1.6644,1.6641,1.6639,0,0,0,0,0,0,1.7154,1.7139,1.7012,1.707,1.7054,1.7024,1.6989,1.6985,1.6963,1.6929,1.6924,1.6957,1.6894,1.6882,1.6817,1.6785,1.684,1.6835,1.6646,1.6643,1.664,1.6614,0,0,0,0,0,0,1.7159,1.714,1.7111,1.7069,1.7051,1.6955,1.6987,1.6982,1.6954,1.6956,1.6912,1.6906,1.6895,1.6825,1.6812,1.6779,1.6831,1.6649,1.6645,1.6641,1.6617,1.661,1.6604,0,0,0,0,0,1.7165,1.7105,1.7109,1.7094,1.7013,1.6953,1.6943,1.6931,1.6951,1.6923,1.6902,1.6908,1.6791,1.6818,1.6803,1.6768,1.6651,1.6646,1.6642,1.662,1.6612,1.6604,0,0,0,0,0,0,1.7142,1.7099,1.7103,1.7028,1.6995,1.6955,1.6917,1.6921,1.688,1.6884,1.6871,1.6861,1.6797,1.6776,1.6807,1.6698,1.6724,1.6716,1.6713,1.6705,1.6698,1.6704,1.6826,0,0,0,0,0,1.7129,1.7083,1.7049,1.6985,1.6969,1.6946,1.692,1.6914,1.6879,1.6864,1.6838,1.6804,1.676,1.6731,1.6689,1.6615,1.6608,1.6584,1.6578,1.6572,1.6565,1.653,1.652,1.6623,1.6624,1.6624,0,0,1.7099,1.707,1.7042,1.698,1.6954,1.6909,1.6934,1.6884,1.6851,1.6856,1.6795,1.6775,1.6736,1.6668,1.6637,1.6649,1.6536,1.6566,1.6562,1.6558,1.6524,1.6514,1.6505,1.662,1.6621,1.6621,0,0,1.7023,1.6996,1.6942,1.6917,1.6877,1.6864,1.6852,1.6813,1.68,1.6739,1.6744,1.6705,1.6628,1.6602,1.6578,1.65,1.6505,1.6487,1.6451,1.6416,1.6408,1.6401,1.6376,1.6366,1.648,1.648,1.648,0,1.6991,1.6923,1.6914,1.6865,1.684,1.6846,1.6793,1.6768,1.6717,1.6699,1.6714,1.6623,1.6596,1.6524,1.6506,1.6486,1.6473,1.6491,1.641,1.6403,1.6396,1.6372,1.6362,1.6478,1.6478,1.6478,1.6479,0,1.6888,1.6841,1.6803,1.6756,1.6726,1.6675,1.6661,1.6632,1.6631,1.6617,1.6556,1.6526,1.648,1.6463,1.6459,1.6391,1.6401,1.6413,1.6439,1.6384,1.6362,1.6352,1.6475,1.6476,1.6477,1.6477,0,0,1.679,1.6744,1.673,1.6711,1.6671,1.6635,1.6587,1.6544,1.6521,1.6486,1.6447,1.6386,1.6399,1.6372,1.6367,1.6336,1.6281,1.6353,1.6352,1.6342,1.6208,1.62,1.6189,1.6285,1.6283,1.6281,1.6212,0,1.6712,1.6626,1.662,1.6544,1.6503,1.6511,1.647,1.6442,1.6429,1.6393,1.6379,1.6337,1.6355,1.634,1.6311,1.6294,1.6254,1.6298,1.6249,1.6248,1.6259,1.6176,1.6166,1.6102,1.6203,1.6201,1.62,0,1.6607,1.6573,1.6494,1.6465,1.6448,1.641,1.6373,1.6338,1.6309,1.6302,1.6276,1.6276,1.6229,1.6259,1.6195,1.6226,1.6206,1.6196,1.6193,1.6188,1.622,1.6171,1.6081,1.6072,1.6186,1.6187,1.6188,0,1.6547,1.6481,1.6427,1.641,1.6374,1.6349,1.6333,1.6306,1.6282,1.625,1.6235,1.6197,1.6176,1.6148,1.6139,1.6161,1.6078,1.6105,1.6072,1.6072,1.6053,1.6054,1.596,1.6039,1.6039,1.6039,1.6039,0,1.646,1.6411,1.64,1.6366,1.6314,1.6309,1.6257,1.6243,1.622,1.6185,1.619,1.6157,1.6147,1.6114,1.6107,1.6058,1.6048,1.6042,1.6041,1.6042,1.6043,1.6028,1.6033,1.6037,1.6037,1.6038,1.6038,0,1.6382,1.6372,1.6314,1.6288,1.628,1.6243,1.6221,1.619,1.618,1.6136,1.6125,1.6109,1.6071,1.606,1.6012,1.6009,1.5951,1.5954,1.5962,1.5962,1.593,1.5934,1.5824,1.581,1.5897,1.5896,1.5896,0,1.6327,1.6291,1.6262,1.6241,1.6224,1.6188,1.6165,1.6161,1.6137,1.6105,1.6078,1.6041,1.601,1.5948,1.5933,1.5898,1.59,1.5865,1.5895,1.5899,1.5902,1.5905,1.5903,1.5858,1.5857,1.5857,1.5856,0,1.6231,1.623,1.6197,1.6165,1.6139,1.6112,1.6086,1.6068,1.6061,1.6034,1.5996,1.5973,1.5928,1.5891,1.5858,1.5842,1.5849,1.5847,1.5838,1.5839,1.5846,1.5844,1.5947,1.5849,1.585,1.585,1.5851,1.5851,1.6164,1.6135,1.6112,1.6077,1.6059,1.6036,1.6008,1.5996,1.5965,1.5928,1.5928,1.5887,1.5864,1.582,1.5803,1.5772,1.5783,1.5769,1.5766,1.5762,1.5761,1.5851,1.5766,1.5766,1.5766,1.5766,1.5766,0,1.6071,1.6058,1.6026,1.5993,1.5967,1.5978,1.5952,1.593,1.5894,1.5872,1.5844,1.5803,1.5769,1.5754,1.5721,1.57,1.5702,1.5691,1.5693,1.569,1.5752,1.5764,1.569,1.569,1.569,1.569,1.569,1.569,1.6019,1.597,1.5968,1.5912,1.59,1.5861,1.5846,1.5827,1.581,1.5765,1.5738,1.5729,1.5711,1.5678,1.5648,1.5645,1.5633,1.5621,1.5619,1.5677,1.5685,1.5692,1.5704,1.5619,1.5618,1.556,1.556,1.5559]},{"header":{"parameterUnit":"m.s-1","parameterCategory":1,"la1":30.2991,"la2":30.254,"lo1":-89.0895,"lo2":-89.0444,"dy":0.0017,"dx":0.0017,"nx":28,"ny":28,"refTime":"2024-02-29T03:00:00:Z","depth":0,"parameterNumber":3,"parameterNumberName":"V-component_of_WINDS"},"data":[0,0,0,0,0,0,0,0,0,0,0,0,0,0,0,0,0,0,0,0,0,0,0,0,0,0,0,0,0,0,0,0,0,0,0,0,0,0,0,0,0,0,0,0,0,0,0,0,0,0,0,0,0,0,0,0,0,0,2.6989,2.699,0,2.713,2.7131,2.7133,2.7182,2.7181,2.7181,2.718,2.732,2.7324,2.7328,0,0,0,0,0,0,0,0,0,0,0,0,0,2.6755,2.6759,2.6988,2.699,2.6992,2.713,2.7132,2.7133,2.7182,2.7181,2.7181,2.718,2.7318,2.7323,2.7328,0,0,0,0,0,0,0,0,0,0,0,0,0,2.6872,2.6761,2.6988,2.7033,2.7038,2.7129,2.7132,2.7134,2.7182,2.7181,2.7181,2.718,2.7317,2.7323,2.7329,2.7384,0,0,2.7348,2.7351,0,0,0,0,0,0,0,0,2.6866,2.6881,2.7025,2.703,2.7036,2.7138,2.7101,2.7218,2.7182,2.7127,2.718,2.7179,2.7259,2.727,2.7298,2.7391,2.7397,2.7349,2.7353,2.7355,2.7357,0,0,0,0,0,0,0,2.6858,2.6875,2.7044,2.7026,2.7034,2.7044,2.706,2.7123,2.7196,2.7132,2.7136,2.7152,2.7262,2.7292,2.7302,2.7399,2.7349,2.7354,2.7358,2.7361,2.7543,2.7544,0,0,0,0,0,0,2.6843,2.6868,2.704,2.7048,2.6947,2.7049,2.7067,2.7106,2.7195,2.7208,2.7153,2.7154,2.7282,2.7295,2.7307,2.7378,2.7355,2.7361,2.7365,2.7542,2.7543,2.7544,0,0,0,0,0,0,2.6837,2.6858,2.7034,2.6959,2.6983,2.7054,2.7097,2.7109,2.7139,2.7211,2.7224,2.717,2.7282,2.7298,2.7365,2.7383,2.7364,2.737,2.754,2.7542,2.7543,2.7519,0,0,0,0,0,0,2.6831,2.6855,2.6878,2.696,2.6987,2.7091,2.7099,2.7112,2.715,2.7153,2.7231,2.7243,2.7282,2.7355,2.7371,2.7392,2.7375,2.7539,2.7541,2.7543,2.7518,2.752,2.752,0,0,0,0,0,2.6822,2.6865,2.6879,2.69,2.7017,2.7092,2.7107,2.7153,2.7152,2.7175,2.7221,2.7241,2.7379,2.7362,2.738,2.7403,2.7538,2.754,2.7543,2.7518,2.7519,2.752,0,0,0,0,0,0,2.6781,2.6876,2.6893,2.6964,2.702,2.71,2.713,2.7153,2.7209,2.7209,2.7262,2.7279,2.7342,2.7379,2.7358,2.746,2.7459,2.7465,2.7434,2.7436,2.7437,2.7427,2.738,0,0,0,0,0,2.6781,2.6836,2.6915,2.6969,2.6996,2.7058,2.7093,2.7124,2.7183,2.7206,2.7257,2.7313,2.7369,2.7404,2.746,2.7524,2.7541,2.7548,2.7549,2.755,2.7554,2.7591,2.7595,2.7552,2.7552,2.7552,0,0,2.678,2.6838,2.6869,2.6962,2.7009,2.7063,2.7078,2.7134,2.7175,2.7214,2.7281,2.732,2.7385,2.7451,2.7482,2.7484,2.757,2.7553,2.7552,2.7557,2.7594,2.7598,2.7601,2.7553,2.7553,2.7553,0,0,2.6806,2.6856,2.6907,2.6954,2.7026,2.7067,2.7079,2.7156,2.7185,2.7253,2.7284,2.7331,2.7426,2.7472,2.7507,2.755,2.757,2.7566,2.7572,2.7607,2.761,2.7613,2.7629,2.7634,2.7571,2.7571,2.7571,0,2.6795,2.688,2.693,2.6986,2.7025,2.7065,2.7116,2.7159,2.7244,2.727,2.727,2.7391,2.7438,2.7514,2.7525,2.7552,2.7567,2.7558,2.7606,2.761,2.7613,2.7629,2.7634,2.757,2.757,2.757,2.757,0,2.6863,2.6921,2.6953,2.7037,2.708,2.7133,2.7189,2.7227,2.7253,2.7294,2.7362,2.7419,2.7487,2.7508,2.7533,2.7588,2.7587,2.7596,2.7596,2.7616,2.7631,2.7637,2.7569,2.7569,2.7569,2.7569,0,0,2.6867,2.6979,2.699,2.7028,2.711,2.7155,2.7209,2.7278,2.7308,2.7365,2.7411,2.7491,2.75,2.754,2.7572,2.7602,2.7633,2.7608,2.761,2.7611,2.7696,2.7689,2.7695,2.7646,2.7648,2.7649,2.7691,0,2.6904,2.7005,2.7052,2.7131,2.7185,2.7224,2.7271,2.7325,2.7364,2.7414,2.7456,2.7512,2.752,2.7545,2.7577,2.7622,2.7651,2.762,2.7689,2.7691,2.7672,2.7703,2.7696,2.7733,2.7697,2.7698,2.7699,0,2.6961,2.702,2.7106,2.7182,2.7206,2.7248,2.7314,2.7362,2.7424,2.745,2.7495,2.7525,2.7582,2.7578,2.7656,2.7634,2.7665,2.7691,2.7694,2.7702,2.7696,2.7713,2.7746,2.7752,2.7709,2.7708,2.7707,0,2.6955,2.7056,2.7121,2.7153,2.7243,2.7272,2.731,2.7372,2.741,2.7467,2.7492,2.7554,2.7588,2.7634,2.768,2.7673,2.7754,2.7753,2.7776,2.7775,2.7792,2.779,2.7831,2.7811,2.7811,2.781,2.781,0,2.6992,2.7042,2.712,2.716,2.7217,2.727,2.7324,2.7366,2.742,2.7467,2.7503,2.7546,2.7604,2.7653,2.7689,2.7748,2.7763,2.7785,2.7794,2.7782,2.7779,2.7803,2.7802,2.7812,2.7812,2.7811,2.7811,0,2.6995,2.705,2.7123,2.7203,2.7224,2.7263,2.7331,2.737,2.7411,2.747,2.7487,2.755,2.7611,2.7661,2.7739,2.7763,2.7825,2.7835,2.7805,2.781,2.783,2.7827,2.7888,2.7898,2.787,2.787,2.787,0,2.7015,2.7056,2.7141,2.7176,2.7215,2.7271,2.7311,2.7363,2.7403,2.7477,2.7506,2.757,2.7624,2.7718,2.777,2.783,2.7842,2.7859,2.7851,2.7838,2.7843,2.784,2.7844,2.786,2.786,2.786,2.786,0,2.7045,2.707,2.7127,2.7194,2.724,2.7295,2.735,2.7376,2.7438,2.748,2.7544,2.7586,2.7667,2.7729,2.7795,2.7833,2.7856,2.7862,2.787,2.7859,2.784,2.7851,2.7807,2.786,2.786,2.786,2.786,2.786,2.7057,2.7095,2.7162,2.7224,2.7271,2.7322,2.7363,2.741,2.7465,2.7537,2.7564,2.7629,2.7689,2.778,2.7818,2.7868,2.7871,2.7883,2.7887,2.7889,2.7888,2.7832,2.788,2.788,2.7881,2.7881,2.7881,0,2.7089,2.7134,2.7191,2.7268,2.7317,2.7337,2.7399,2.7438,2.7495,2.7551,2.7603,2.7676,2.7737,2.7794,2.7857,2.7886,2.7898,2.7901,2.7899,2.7907,2.7881,2.7868,2.789,2.789,2.789,2.789,2.789,2.789,2.7111,2.7177,2.7209,2.7298,2.7343,2.7408,2.7442,2.7489,2.7533,2.7614,2.7665,2.7703,2.7759,2.7826,2.7882,2.7898,2.7919,2.7919,2.7936,2.7911,2.7909,2.7908,2.7896,2.7923,2.7923,2.7959,2.7959,2.7959]}]]